User: anonymous   Login
Location: Yellowknife
(62.4500°N, 114.3500°W)
Time: 15:08:32
(UTC-07:00)
Language:

ISS - Orbit

View from above orbital plane
View from above orbital plane
View from above satellite
View from above satellite

Ground track
Ground track

The orbit data is extracted from the following two-line orbital elements,

1 25544U 98067A   24057.57709433  .00023616  00000-0  42960-3 0  9998
2 25544  51.6422 148.4883 0005907 296.6054 198.0494 15.49379373441242
Epoch (UTC): 26 February 2024 13:51:00
Eccentricity: 0.0005907
inclination: 51.6422°
perigee height: 414 km
apogee height: 422 km
right ascension of ascending node: 148.4883°
argument of perigee: 296.6054°
revolutions per day: 15.49379373
mean anomaly at epoch: 198.0494°
orbit number at epoch: 44124

The dashed part of the orbit path shows where the satellite is in the earth's shadow,  

DLR